Regional Weather Roundup
Issued by NWS Upton, NY

Current Version | Previous Version | Graphics & Text | Print | Product List | Glossary Off
Versions: 1 2 3 4 5 6 7 8 9 10 11 12 13 14 15 16 17 18 19 20 21 22 23 24 25 26 27 28 29 30 31 32 33 34 35 36 37 38 39 40 41 42 43 44 45 46 47 48 49 50
103 ASUS41 KOKX 181009 RWROKX REGIONAL WEATHER ROUNDUP NATIONAL WEATHER SERVICE NEW YORK NY 500 AM EST SAT NOV 18 2017 NOTE: "FAIR" INDICATES FEW OR NO CLOUDS BELOW 12,000 FEET WITH NO SIGNIFICANT WEATHER AND/OR OBSTRUCTIONS TO VISIBILITY. NYZ071-072-176-178-NJZ106-104-181100- NEW YORK CITY METRO AREA CITY SKY/WX TMP DP RH WIND PRES REMARKS Central Park CLEAR 36 20 52 CALM 30.02S Bronx Bot Gard N/A 32 19 59 N2 30.01S LaGuardia APRT PTCLDY 37 20 50 SW3 30.00S Kennedy INTL PTCLDY 31 24 75 CALM 30.03R Breezy Point N/A 39 N/A N/A N1 N/A Newark/Liberty MOCLDY 31 22 69 W3 30.01S Teterboro CLEAR 30 21 69 CALM 30.01R $$ NYZ177-179-078>081-181100- LONG ISLAND NEW YORK CITY SKY/WX TMP DP RH WIND PRES REMARKS Jones Beach N/A 37 N/A N/A MISG N/A Matinecock PT N/A 37 N/A N/A SW6 N/A WCI 33 Farmingdale CLEAR 29 22 75 CALM 30.01F MacArthur/ISP PTCLDY 26 23 88 CALM 30.00F Shirley PTCLDY 25 22 88 CALM 30.01S Mt Sinai Harb N/A N/A N/A N/A S3 N/A Westhampton CLEAR 19 14 81 CALM 30.02F East Hampton FAIR 21 18 88 CALM 30.00F Southold NOT AVBL Montauk N/A 33 25 72 CALM 30.00 $$ NYZ052-065-067-181100- HUDSON VALLEY CITY SKY/WX TMP DP RH WIND PRES REMARKS White Plains CLEAR 26 19 74 CALM 29.98S Larchmont Harb N/A 32 N/A N/A W5 N/A WCI 27 Croton On Huds N/A N/A N/A N/A NE3 N/A Newburgh CLEAR 23 21 93 CALM 29.99S Montgomery CLOUDY 21 18 88 CALM 29.97F Poughkeepsie CLOUDY 21 16 81 CALM 30.00S Albany CLOUDY 22 17 81 CALM 29.97F $$ NJZ001-105-106-008-010-013-015-019>022-104-181100- NEW JERSEY CITY SKY/WX TMP DP RH WIND PRES REMARKS Newark/Liberty MOCLDY 31 22 69 W3 30.01S Teterboro CLEAR 30 21 69 CALM 30.01R Caldwell CLEAR 26 22 84 CALM 30.01S Somerville CLOUDY 22 20 92 CALM 30.00S Linden FAIR 30 22 72 CALM 30.01F Perth Amboy N/A 34 N/A N/A W3 N/A Sussex CLOUDY 22 19 89 CALM 29.98F Andover NOT AVBL Trenton CLOUDY 29 24 82 CALM 30.01R Millville CLEAR 27 26 96 CALM 30.04R Atlantic City CLOUDY 28 25 88 CALM 30.04S Wrightstown CLEAR 26 23 89 CALM 30.00S Toms River CLEAR 21 19 92 CALM 30.04S Belmar PTCLDY 27 23 85 CALM 30.03R $$ PAZ047>061-062-071-181100- EASTERN PENNSYLVANIA CITY SKY/WX TMP DP RH WIND PRES REMARKS Philadelphia CLOUDY 36 30 79 S3 30.03S Allentown CLOUDY 28 21 75 CALM 29.98F Scranton CLOUDY 31 23 72 CALM 29.90F $$ CTZ002-004>006-009-010-012-RIZ004-006-007-MAZ004-011-015-181100- SOUTHERN NEW ENGLAND IN CT CITY SKY/WX TMP DP RH WIND PRES REMARKS Bradley INTL MOCLDY 24 18 77 CALM 29.99F Hartford CLOUDY 25 20 81 CALM 30.00F Danbury CLEAR 24 18 77 CALM 30.00S Wtrbury/Oxford PTCLDY 24 16 71 CALM 29.98S Norwalk Harbor N/A N/A N/A N/A NW5 N/A Bridgeport PTCLDY 30 19 63 W5 30.00F WCI 25 Meriden PTCLDY 22 20 92 CALM 30.01S New Haven PTCLDY 26 17 68 N3 30.00F Chester FAIR 28 9 43 W3 29.98S Groton CLEAR 27 22 81 N5 29.99F WCI 22 Wilimantic CLEAR 24 20 84 N3 30.00F IN RI CITY SKY/WX TMP DP RH WIND PRES REMARKS Providence CLEAR 28 20 71 W8 30.01R WCI 20 Block Island CLEAR 37 24 59 W5 30.00S WCI 33 Westerly CLEAR 26 21 81 CALM 30.00S IN MA CITY SKY/WX TMP DP RH WIND PRES REMARKS Boston CLEAR 32 17 54 SW3 29.98R Worcester CLEAR 26 15 63 W15 29.94S WCI 14 Westfield CLOUDY 21 18 88 CALM 29.98F Provincetown CLEAR 37 23 56 MISG 29.97S Nantucket CLEAR 30 19 63 W3 29.97F $$ ANZ330-335-338-340-345-350-353-355-181100- COASTAL MARINE OBSERVATIONS STATION/POSITION TIME SKY/WX TEMP WIND PRES VSBY WAVE AIR SEA DIR/SP/G HT/PER (UTC) (F) (DEG/KT/KT) (MB) (MI) (FT/S) NY HARB ENTRANCE 0850 45 57 290/ 4/ 6 1016.0 1/11 20 S FIRE ISLAND 0950 46 57 220/ 4/ 6 1016.4 1/11 GREAT SOUTH BAY 0930 39 46 CALM / 2 N/A HUDSON CANYON 0950 50 60 230/ 4/ 6 1016.1 3/ 5 KINGS POINT NOT AVBL EXECUTION ROCKS 0945 40 160/ 4/ 6 N/A WESTERN LI SOUND 0849 40 220/ 4/ 8 N/A 0 CENTRAL LI SOUND 0900 42 290/ 6/ 10 N/A 1 ROBBINS REEF NOT AVBL $$ >>>>>>>>>>>>>>>>>>>>>>>>>>>> KEY <<<<<<<<<<<<<<<<<<<<<<<<<<< > < > SKY/WX - Sky Condition/Present Weather < > TMP - Temperature in Fahrenheit < > DP - Dew Point in Fahrenheit < > RH - Relative Humidity in Percent < > WIND - Direction (from) and Speed in MPH < > PRES - Mean Sea Level Pressure (inches of Hg) < > WCI - Wind Chill Index < > VSB - VISIBILITY IN MILES < > HX - HEAT INDEX < > TC - TEMPERATURE IN CELSIUS < > VRB - VARIABLE WIND DIRECTION < > < >>>>>>>>>>>>>>>>>>>>>>>>>>>> KEY <<<<<<<<<<<<<<<<<<<<<<<<<<<

USA.gov is the U.S. government's official web portal to all federal, state and local government web resources and services.